Weather in Krasnoe

Ukraine / Kherson District     46°07′50″N   32°46′04″E
temp.,
°C
wind,
m/s
gust,
m/s
humid.,
%
clouds,
%
prec.,
mm/h
press.,
hPa
HPBL,
m
7 march, sun
sun723:00−2nnw48650 0.0 1029271
02:00−2wnw34610 0.0 102996
05:00−2w34620 0.0 102888
08:00+1w47540 0.0 1028843
11:00+3w67420 0.0 10271521
14:00+3wsw78420 0.0 10241349
17:00+2wsw69520 0.0 1022976
20:00+1sw611630 0.0 1021384
8 march, mon
mon823:00+2sw612720 0.0 1020368
02:00+2sw612770 0.0 1018395
05:00+2sw5118271 0.0 1016304
08:00+4wsw6107375 0.0 1016865
11:00+7wsw795420 0.0 10151311
14:00+7wsw784810 0.0 10141117
17:00+5wsw565633 0.0 1013452
20:00+3w486767 0.0 1015252
9 march, tue
tue923:00+2nw347167 0.0 101655
02:00+1nnw377656 0.0 1017278
05:00−1nnw477682 0.0 1018257
08:000n465460 0.0 1020517
11:00+3nnw45350 0.0 10211224
14:00+5nw44300 0.0 10211569
17:00+4nw44360 0.0 10211095
20:000nnw34534 0.0 102393
10 march, wed
wed1023:00−1ne336436 0.0 102482
02:00−2ene356768 0.0 1024135
05:00−2ene476697 0.0 1023224
08:00−1ene575399 0.0 1023420
11:00+2e5645100 0.0 1023979
14:00+3e5639100 0.0 10221216
17:00+2ene5744100 0.0 10201208
20:00−1ene4956100 0.0 1021396
11 march, thu
thu1123:00−2ne41058100 0.0 1022467
02:00−3ne51056100 0.0 1022386
05:00−4ne5105226 0.0 1023350
08:00−2ene684313 0.0 1024560
11:00+2ene56270 0.0 10251209
14:00+3e34240 0.0 10251643
17:00+2sse33380 0.0 1025476
20:00−1se23560 0.0 102750